| time (UTC) | temp F | wind direction | speed knots | gust knots | rain 1hr in | rain 24hr in | rain mn in | humidity % | barometer mb |
| 20260901135557 | 66 | 205 | 4.3 | 10.4 | 0.00 | 0.00 | 0.00 | 79 | 1017.1 |
| 20260901135057 | 66 | 221 | 5.2 | 13.0 | 0.00 | 0.00 | 0.00 | 78 | 1017.2 |
| 20260901134558 | 66 | 229 | 7.0 | 13.0 | 0.00 | 0.00 | 0.00 | 76 | 1017.1 |
| 20260901134100 | 67 | 243 | 7.0 | 15.6 | 0.00 | 0.00 | 0.00 | 74 | 1017.1 |
| 20260901133701 | 67 | 205 | 7.0 | 15.6 | 0.00 | 0.00 | 0.00 | 73 | 1017.2 |
| 20260901133058 | 69 | 223 | 5.2 | 13.0 | 0.00 | 0.00 | 0.00 | 72 | 1017.1 |
| 20260901132559 | 69 | 227 | 6.1 | 13.0 | 0.00 | 0.00 | 0.00 | 70 | 1017.1 |
| 20260901132058 | 69 | 219 | 3.5 | 13.0 | 0.00 | 0.00 | 0.00 | 70 | 1017.0 |
| 20260901131558 | 70 | 265 | 4.3 | 10.4 | 0.00 | 0.00 | 0.00 | 71 | 1017.0 |
| 20260901131100 | 69 | 248 | 2.6 | 8.7 | 0.00 | 0.00 | 0.00 | 72 | 1017.0 |
| 20260901130558 | 68 | 246 | 5.2 | 14.8 | 0.00 | 0.00 | 0.00 | 72 | 1017.0 |
| 20260901125558 | 68 | 262 | 5.2 | 13.9 | 0.00 | 0.00 | 0.00 | 73 | 1017.0 |
| 20260901125100 | 68 | 240 | 4.3 | 12.2 | 0.00 | 0.00 | 0.00 | 73 | 1017.0 |
| 20260901124559 | 67 | 221 | 4.3 | 15.6 | 0.00 | 0.00 | 0.00 | 76 | 1017.0 |
| 20260901124058 | 66 | 247 | 7.0 | 15.6 | 0.00 | 0.00 | 0.00 | 77 | 1017.1 |
| 20260901123558 | 66 | 238 | 5.2 | 13.9 | 0.00 | 0.00 | 0.00 | 76 | 1017.0 |
| 20260901123100 | 66 | 228 | 6.1 | 13.9 | 0.00 | 0.00 | 0.00 | 74 | 1017.0 |
| 20260901122559 | 67 | 232 | 7.0 | 10.4 | 0.00 | 0.00 | 0.00 | 72 | 1017.0 |
| 20260901122100 | 68 | 240 | 3.5 | 13.9 | 0.00 | 0.00 | 0.00 | 70 | 1016.8 |
| 20260901121600 | 68 | 226 | 7.8 | 13.9 | 0.00 | 0.00 | 0.00 | 70 | 1016.8 |
| 20260901121059 | 67 | 215 | 1.7 | 7.8 | 0.00 | 0.00 | 0.00 | 72 | 1016.8 |
| 20260901120559 | 67 | 205 | 3.5 | 12.2 | 0.00 | 0.00 | 0.00 | 71 | 1016.8 |
| 20260901120059 | 67 | 225 | 6.1 | 15.6 | 0.00 | 0.00 | 0.00 | 70 | 1016.9 |
| 20260901115600 | 68 | 240 | 6.1 | 15.6 | 0.00 | 0.00 | 0.00 | 68 | 1016.9 |
| 20260901115059 | 68 | 295 | 3.5 | 15.6 | 0.00 | 0.00 | 0.00 | 67 | 1016.8 |
| 20260901114639 | 69 | 193 | 7.0 | 10.4 | 0.00 | 0.00 | 0.00 | 68 | 1016.8 |
| 20260901114059 | 68 | 221 | 4.3 | 15.6 | 0.00 | 0.00 | 0.00 | 69 | 1016.8 |
| 20260901113558 | 68 | 221 | 7.0 | 15.6 | 0.00 | 0.00 | 0.00 | 69 | 1016.7 |
| 20260901113059 | 68 | 233 | 6.1 | 13.9 | 0.00 | 0.00 | 0.00 | 69 | 1016.9 |
| 20260901113001 | 68 | 211 | 6.1 | 13.0 | 0.00 | 0.00 | 0.00 | 69 | 1016.8 |
| 20260901112558 | 68 | 209 | 5.2 | 12.2 | 0.00 | 0.00 | 0.00 | 69 | 1016.8 |
| 20260901112058 | 68 | 324 | 4.3 | 10.4 | 0.00 | 0.00 | 0.00 | 68 | 1016.8 |
| 20260901111559 | 69 | 292 | 4.3 | 10.4 | 0.00 | 0.00 | 0.00 | 66 | 1016.8 |
| 20260901111059 | 69 | 269 | 3.5 | 15.6 | 0.00 | 0.00 | 0.00 | 68 | 1016.7 |
| 20260901110601 | 68 | 193 | 6.1 | 15.6 | 0.00 | 0.00 | 0.00 | 67 | 1016.8 |
| 20260901110101 | 68 | 207 | 1.7 | 14.8 | 0.00 | 0.00 | 0.00 | 71 | 1016.8 |
| 20260901105558 | 66 | 257 | 7.8 | 14.8 | 0.00 | 0.00 | 0.00 | 71 | 1016.9 |
| 20260901105058 | 66 | 240 | 5.2 | 11.3 | 0.00 | 0.00 | 0.00 | 71 | 1016.8 |
| 20260901104557 | 67 | 219 | 4.3 | 13.0 | 0.00 | 0.00 | 0.00 | 71 | 1016.7 |
| 20260901104058 | 67 | 221 | 4.3 | 13.0 | 0.00 | 0.00 | 0.00 | 70 | 1016.6 |
| 20260901103557 | 68 | 260 | 5.2 | 12.2 | 0.00 | 0.00 | 0.00 | 70 | 1016.6 |
| 20260901103057 | 67 | 219 | 4.3 | 14.8 | 0.00 | 0.00 | 0.00 | 71 | 1016.6 |
| 20260901102558 | 66 | 298 | 6.1 | 14.8 | 0.00 | 0.00 | 0.00 | 72 | 1016.6 |
| 20260901102102 | 65 | 294 | 4.3 | 10.4 | 0.00 | 0.00 | 0.00 | 73 | 1016.6 |
| 20260901101601 | 65 | 230 | 7.0 | 12.2 | 0.00 | 0.00 | 0.00 | 71 | 1016.5 |
| 20260901101057 | 66 | 273 | 4.3 | 17.4 | 0.00 | 0.00 | 0.00 | 71 | 1016.5 |
| 20260901100557 | 66 | 292 | 4.3 | 17.4 | 0.00 | 0.00 | 0.00 | 71 | 1016.4 |
| 20260901095603 | 66 | 251 | 4.3 | 12.2 | 0.00 | 0.00 | 0.00 | 72 | 1016.3 |
| 20260901095059 | 66 | 258 | 5.2 | 13.9 | 0.00 | 0.00 | 0.00 | 72 | 1016.2 |
| 20260901094558 | 66 | 306 | 6.1 | 13.9 | 0.00 | 0.00 | 0.00 | 74 | 1016.3 |
| 20260901094100 | 65 | 225 | 4.3 | 13.0 | 0.00 | 0.00 | 0.00 | 74 | 1016.3 |
| 20260901093558 | 66 | 246 | 7.0 | 13.0 | 0.00 | 0.00 | 0.00 | 72 | 1016.2 |
| 20260901093103 | 66 | 274 | 5.2 | 14.8 | 0.00 | 0.00 | 0.00 | 73 | 1016.1 |
| 20260901092559 | 66 | 276 | 5.2 | 13.9 | 0.00 | 0.00 | 0.00 | 72 | 1016.1 |
| 20260901092059 | 67 | 236 | 7.0 | 13.9 | 0.00 | 0.00 | 0.00 | 73 | 1016.2 |
| 20260901091604 | 65 | 287 | 3.5 | 15.6 | 0.00 | 0.00 | 0.00 | 76 | 1016.2 |
| 20260901091058 | 64 | 256 | 5.2 | 15.6 | 0.00 | 0.00 | 0.00 | 79 | 1016.2 |
| 20260901090559 | 64 | 218 | 4.3 | 12.2 | 0.00 | 0.00 | 0.00 | 81 | 1016.1 |
| 20260901090059 | 63 | 241 | 4.3 | 10.4 | 0.00 | 0.00 | 0.00 | 81 | 1016.1 |
| 20260901085557 | 63 | 228 | 5.2 | 10.4 | 0.00 | 0.00 | 0.00 | 81 | 1016.1 |
| 20260901085102 | 63 | 229 | 5.2 | 12.2 | 0.00 | 0.00 | 0.00 | 80 | 1016.0 |
| 20260901084558 | 63 | 197 | 4.3 | 12.2 | 0.00 | 0.00 | 0.00 | 81 | 1015.9 |
| 20260901084058 | 64 | 209 | 5.2 | 12.2 | 0.00 | 0.00 | 0.00 | 81 | 1015.8 |
| 20260901083601 | 63 | 271 | 3.5 | 10.4 | 0.00 | 0.00 | 0.00 | 82 | 1015.8 |
| 20260901083059 | 63 | 199 | 7.0 | 10.4 | 0.00 | 0.00 | 0.00 | 82 | 1015.8 |
| 20260901082557 | 63 | 230 | 4.3 | 9.6 | 0.00 | 0.00 | 0.00 | 83 | 1015.8 |
| 20260901082059 | 63 | 230 | 2.6 | 9.6 | 0.00 | 0.00 | 0.00 | 84 | 1015.8 |
| 20260901081558 | 62 | 175 | 2.6 | 8.7 | 0.00 | 0.00 | 0.00 | 85 | 1015.7 |
| 20260901081057 | 62 | 232 | 2.6 | 8.7 | 0.00 | 0.00 | 0.00 | 85 | 1015.7 |
| 20260901080558 | 62 | 225 | 3.5 | 7.8 | 0.00 | 0.00 | 0.00 | 85 | 1015.6 |
| 20260901080105 | 62 | 227 | 2.6 | 8.7 | 0.00 | 0.00 | 0.00 | 86 | 1015.6 |
| 20260901075559 | 62 | 196 | 3.5 | 8.7 | 0.00 | 0.00 | 0.00 | 86 | 1015.7 |
| 20260901075057 | 62 | 214 | 4.3 | 8.7 | 0.00 | 0.00 | 0.00 | 86 | 1015.6 |
| 20260901074559 | 62 | 220 | 3.5 | 6.1 | 0.00 | 0.00 | 0.00 | 86 | 1015.6 |
| 20260901074058 | 62 | 285 | 3.5 | 12.2 | 0.00 | 0.00 | 0.00 | 86 | 1015.6 |
| 20260901073558 | 62 | 202 | 5.2 | 12.2 | 0.00 | 0.00 | 0.00 | 87 | 1015.5 |
| 20260901073103 | 61 | 192 | 4.3 | 7.0 | 0.00 | 0.00 | 0.00 | 87 | 1015.5 |
| 20260901073002 | 61 | 168 | 3.5 | 6.1 | 0.00 | 0.00 | 0.00 | 88 | 1015.5 |
| 20260901072558 | 61 | 180 | 3.5 | 6.1 | 0.00 | 0.00 | 0.00 | 87 | 1015.5 |
| 20260901072059 | 60 | 296 | 2.6 | 8.7 | 0.00 | 0.00 | 0.00 | 88 | 1015.5 |
| 20260901071559 | 60 | 228 | 5.2 | 8.7 | 0.00 | 0.00 | 0.00 | 88 | 1015.4 |
| 20260901071058 | 60 | 227 | 3.5 | 9.6 | 0.00 | 0.00 | 0.00 | 88 | 1015.5 |
| 20260901070558 | 60 | 227 | 3.5 | 8.7 | 0.00 | 0.00 | 0.00 | 88 | 1015.4 |
| 20260901070112 | 60 | 217 | 3.5 | 9.6 | 0.00 | 0.00 | 0.00 | 88 | 1015.3 |
| 20260901065557 | 60 | 234 | 4.3 | 10.4 | 0.00 | 0.00 | 0.00 | 88 | 1015.3 |
| 20260901065059 | 60 | 234 | 4.3 | 7.8 | 0.00 | 0.00 | 0.00 | 88 | 1015.2 |
| 20260901064557 | 60 | 223 | 3.5 | 7.0 | 0.00 | 0.00 | 0.00 | 88 | 1015.2 |
| 20260901064058 | 60 | 223 | 1.7 | 6.1 | 0.00 | 0.00 | 0.00 | 88 | 1015.2 |
| 20260901063557 | 60 | 239 | 2.6 | 6.1 | 0.00 | 0.00 | 0.00 | 87 | 1015.1 |
| 20260901063058 | 61 | 211 | 1.7 | 6.1 | 0.00 | 0.00 | 0.00 | 87 | 1015.1 |
| 20260901062601 | 61 | 207 | 1.7 | 6.1 | 0.00 | 0.00 | 0.00 | 87 | 1015.0 |
| 20260901062059 | 61 | 156 | 2.6 | 6.1 | 0.00 | 0.00 | 0.00 | 87 | 1015.0 |
| 20260901061558 | 61 | 146 | 2.6 | 6.1 | 0.00 | 0.00 | 0.00 | 87 | 1014.9 |
| 20260901061058 | 61 | 211 | 1.7 | 5.2 | 0.00 | 0.00 | 0.00 | 87 | 1014.9 |
| 20260901060557 | 61 | 161 | 1.7 | 6.1 | 0.00 | 0.00 | 0.00 | 87 | 1014.8 |
| 20260901060058 | 60 | 255 | 2.6 | 10.4 | 0.00 | 0.00 | 0.00 | 87 | 1014.8 |
| 20260901055558 | 60 | 228 | 1.7 | 10.4 | 0.00 | 0.00 | 0.00 | 87 | 1014.8 |
| 20260901055057 | 60 | 194 | 0.9 | 6.1 | 0.00 | 0.00 | 0.00 | 87 | 1014.7 |
| 20260901054600 | 60 | 184 | 2.6 | 8.7 | 0.00 | 0.00 | 0.00 | 87 | 1014.7 |
| 20260901054059 | 60 | 161 | 3.5 | 9.6 | 0.00 | 0.00 | 0.00 | 87 | 1014.7 |
| 20260901053601 | 60 | 188 | 4.3 | 10.4 | 0.00 | 0.00 | 0.00 | 87 | 1014.6 |
| 20260901053100 | 60 | 191 | 2.6 | 10.4 | 0.00 | 0.00 | 0.00 | 87 | 1014.6 |
| 20260901052558 | 60 | 221 | 2.6 | 7.0 | 0.00 | 0.00 | 0.00 | 88 | 1014.6 |
| 20260901052057 | 59 | 205 | 3.5 | 7.0 | 0.00 | 0.00 | 0.00 | 88 | 1014.6 |
| 20260901051558 | 59 | 225 | 3.5 | 7.8 | 0.00 | 0.00 | 0.00 | 88 | 1014.6 |
| 20260901051058 | 59 | 211 | 3.5 | 9.6 | 0.00 | 0.00 | 0.00 | 88 | 1014.6 |
| 20260901050557 | 59 | 241 | 5.2 | 9.6 | 0.00 | 0.00 | 0.00 | 88 | 1014.7 |
| 20260901050057 | 59 | 184 | 3.5 | 9.6 | 0.00 | 0.00 | 0.00 | 88 | 1014.6 |
| 20260901045558 | 59 | 179 | 4.3 | 7.8 | 0.00 | 0.00 | 0.00 | 88 | 1014.6 |
| 20260901045057 | 59 | 235 | 4.3 | 8.7 | 0.00 | 0.00 | 0.00 | 88 | 1014.5 |
| 20260901044601 | 58 | 227 | 2.6 | 8.7 | 0.00 | 0.00 | 0.00 | 88 | 1014.5 |
| 20260901044100 | 58 | 211 | 4.3 | 7.8 | 0.00 | 0.00 | 0.00 | 88 | 1014.5 |
| 20260901043558 | 58 | 254 | 3.5 | 7.0 | 0.00 | 0.00 | 0.00 | 88 | 1014.4 |
| 20260901043058 | 58 | 212 | 2.6 | 7.0 | 0.00 | 0.00 | 0.00 | 88 | 1014.3 |
| 20260901042558 | 58 | 209 | 4.3 | 7.0 | 0.00 | 0.00 | 0.00 | 88 | 1014.3 |
| 20260901042057 | 58 | 200 | 4.3 | 7.8 | 0.00 | 0.00 | 0.00 | 88 | 1014.2 |
| 20260901041604 | 58 | 211 | 3.5 | 7.8 | 0.00 | 0.00 | 0.00 | 88 | 1014.2 |
| 20260901041100 | 58 | 202 | 2.6 | 8.7 | 0.00 | 0.00 | 0.00 | 88 | 1014.2 |
| 20260901040558 | 58 | 209 | 4.3 | 8.7 | 0.00 | 0.00 | 0.00 | 88 | 1014.2 |
| 20260901040059 | 58 | 180 | 3.5 | 7.0 | 0.00 | 0.00 | 0.00 | 88 | 1014.1 |
| 20260901035558 | 57 | 217 | 2.6 | 7.0 | 0.00 | 0.00 | 0.00 | 88 | 1014.1 |
| 20260901035057 | 57 | 219 | 2.6 | 6.1 | 0.00 | 0.00 | 0.00 | 88 | 1014.1 |
| 20260901034556 | 57 | 211 | 2.6 | 7.0 | 0.00 | 0.00 | 0.00 | 88 | 1014.0 |
| 20260901034057 | 57 | 239 | 0.0 | 4.3 | 0.00 | 0.00 | 0.00 | 88 | 1014.0 |
| 20260901033558 | 57 | 188 | 0.9 | 5.2 | 0.00 | 0.00 | 0.00 | 88 | 1014.0 |
| 20260901033117 | 57 | 196 | 1.7 | 5.2 | 0.00 | 0.00 | 0.00 | 88 | 1014.0 |
| 20260901032602 | 57 | 209 | 1.7 | 5.2 | 0.00 | 0.00 | 0.00 | 88 | 1014.0 |
| 20260901032058 | 57 | 210 | 2.6 | 5.2 | 0.00 | 0.00 | 0.00 | 88 | 1014.0 |
| 20260901031558 | 57 | 215 | 2.6 | 5.2 | 0.00 | 0.00 | 0.00 | 88 | 1014.0 |
| 20260901031100 | 57 | 202 | 2.6 | 5.2 | 0.00 | 0.00 | 0.00 | 88 | 1013.9 |
| 20260901031002 | 57 | 212 | 2.6 | 5.2 | 0.00 | 0.00 | 0.00 | 88 | 1013.9 |
| 20260901030558 | 56 | 195 | 1.7 | 4.3 | 0.00 | 0.00 | 0.00 | 88 | 1013.9 |
| 20260901030104 | 57 | 195 | 0.9 | 2.6 | 0.00 | 0.00 | 0.00 | 88 | 1013.8 |
| 20260901025558 | 56 | 207 | 0.0 | 2.6 | 0.00 | 0.00 | 0.00 | 88 | 1013.8 |
| 20260901025059 | 57 | 205 | 0.0 | 2.6 | 0.00 | 0.00 | 0.00 | 88 | 1013.8 |
| 20260901024558 | 57 | 182 | 0.0 | 0.9 | 0.00 | 0.00 | 0.00 | 88 | 1013.7 |
| 20260901024058 | 57 | 168 | 0.0 | 1.7 | 0.00 | 0.00 | 0.00 | 88 | 1013.7 |
| 20260901023557 | 57 | 144 | 0.0 | 2.6 | 0.00 | 0.00 | 0.00 | 88 | 1013.7 |
| 20260901023057 | 57 | 222 | 0.0 | 2.6 | 0.00 | 0.00 | 0.00 | 89 | 1013.7 |
| 20260901022557 | 57 | 149 | 0.0 | 2.6 | 0.00 | 0.00 | 0.00 | 89 | 1013.7 |
| 20260901022058 | 57 | 184 | 0.0 | 1.7 | 0.00 | 0.00 | 0.00 | 88 | 1013.6 |
| 20260901021604 | 58 | 133 | 0.0 | 3.5 | 0.00 | 0.00 | 0.00 | 89 | 1013.6 |
| 20260901021057 | 58 | 189 | 1.7 | 3.5 | 0.00 | 0.00 | 0.00 | 89 | 1013.7 |
| 20260901020558 | 58 | 198 | 1.7 | 2.6 | 0.00 | 0.00 | 0.00 | 88 | 1013.7 |
| 20260901020058 | 58 | 207 | 0.0 | 1.7 | 0.00 | 0.00 | 0.00 | 88 | 1013.6 |
| 20260901015558 | 58 | 220 | 0.0 | 0.9 | 0.00 | 0.00 | 0.00 | 88 | 1013.6 |
| 20260901015057 | 59 | 200 | 0.0 | 1.7 | 0.00 | 0.00 | 0.00 | 88 | 1013.5 |
| 20260901014557 | 59 | 204 | 0.0 | 2.6 | 0.00 | 0.00 | 0.00 | 88 | 1013.5 |
| 20260901014058 | 60 | 211 | 0.9 | 2.6 | 0.00 | 0.00 | 0.00 | 88 | 1013.5 |
| 20260901013558 | 60 | 177 | 0.0 | 2.6 | 0.00 | 0.00 | 0.00 | 88 | 1013.5 |
| 20260901013113 | 61 | 218 | 0.0 | 3.5 | 0.00 | 0.00 | 0.00 | 88 | 1013.5 |
| 20260901012558 | 61 | 209 | 0.9 | 5.2 | 0.00 | 0.00 | 0.00 | 88 | 1013.5 |
| 20260901012058 | 61 | 182 | 2.6 | 7.0 | 0.00 | 0.00 | 0.00 | 88 | 1013.4 |
| 20260901011613 | 61 | 163 | 2.6 | 7.0 | 0.00 | 0.00 | 0.00 | 87 | 1013.5 |
| 20260901011057 | 60 | 167 | 3.5 | 6.1 | 0.00 | 0.00 | 0.00 | 87 | 1013.5 |
| 20260901010557 | 60 | 218 | 1.7 | 8.7 | 0.00 | 0.00 | 0.00 | 87 | 1013.5 |
| 20260901010112 | 60 | 175 | 2.6 | 6.1 | 0.00 | 0.00 | 0.00 | 87 | 1013.4 |
| 20260901005556 | 60 | 184 | 2.6 | 6.1 | 0.00 | 0.00 | 0.00 | 86 | 1013.5 |
| 20260901005059 | 60 | 204 | 1.7 | 3.5 | 0.00 | 0.00 | 0.00 | 86 | 1013.5 |
| 20260901004556 | 59 | 186 | 1.7 | 3.5 | 0.00 | 0.00 | 0.00 | 87 | 1013.6 |
| 20260901004057 | 59 | 158 | 0.9 | 3.5 | 0.00 | 0.00 | 0.00 | 87 | 1013.6 |
| 20260901003600 | 59 | 175 | 0.9 | 3.5 | 0.00 | 0.00 | 0.00 | 87 | 1013.7 |
| 20260901003057 | 59 | 220 | 0.9 | 4.3 | 0.00 | 0.00 | 0.00 | 87 | 1013.6 |
| 20260901002559 | 59 | 181 | 0.9 | 4.3 | 0.00 | 0.00 | 0.00 | 87 | 1013.6 |
| 20260901002058 | 59 | 193 | 1.7 | 3.5 | 0.00 | 0.00 | 0.00 | 87 | 1013.6 |
| 20260901001557 | 59 | 207 | 1.7 | 3.5 | 0.00 | 0.00 | 0.00 | 87 | 1013.6 |
| 20260901001057 | 59 | 216 | 1.7 | 4.3 | 0.00 | 0.00 | 0.00 | 87 | 1013.5 |
| 20260901000556 | 59 | 190 | 1.7 | 5.2 | 0.00 | 0.00 | 0.00 | 87 | 1013.5 |
| 20260901000056 | 58 | 207 | 1.7 | 3.5 | 0.00 | 0.00 | 0.00 | 87 | 1013.3 |
| 20260831235557 | 58 | 211 | 1.7 | 4.3 | 0.00 | 0.00 | 0.00 | 87 | 1013.3 |
| 20260831235058 | 59 | 207 | 1.7 | 4.3 | 0.00 | 0.00 | 0.00 | 87 | 1013.2 |
| 20260831234601 | 58 | 200 | 0.9 | 2.6 | 0.00 | 0.00 | 0.00 | 87 | 1013.3 |
| 20260831234057 | 58 | 219 | 0.0 | 0.9 | 0.00 | 0.00 | 0.00 | 87 | 1013.1 |
| 20260831233558 | 59 | 142 | 0.0 | 3.5 | 0.00 | 0.00 | 0.00 | 88 | 1013.2 |
| 20260831233100 | 59 | 155 | 1.7 | 3.5 | 0.00 | 0.00 | 0.00 | 87 | 1013.3 |
| 20260831232556 | 59 | 202 | 0.0 | 3.5 | 0.00 | 0.00 | 0.00 | 88 | 1013.4 |
| 20260831232101 | 59 | 194 | 1.7 | 3.5 | 0.00 | 0.00 | 0.00 | 88 | 1013.3 |
| 20260831231601 | 58 | 211 | 1.7 | 3.5 | 0.00 | 0.00 | 0.00 | 88 | 1013.3 |
| 20260831231057 | 58 | 202 | 0.9 | 2.6 | 0.00 | 0.00 | 0.00 | 88 | 1013.3 |
| 20260831230601 | 58 | 192 | 0.0 | 2.6 | 0.00 | 0.00 | 0.00 | 88 | 1013.3 |
| 20260831225601 | 59 | 144 | 0.0 | 0.9 | 0.00 | 0.00 | 0.00 | 88 | 1013.4 |
| 20260831225059 | 59 | 101 | 0.0 | 1.7 | 0.00 | 0.00 | 0.00 | 88 | 1013.3 |
| 20260831224600 | 59 | 116 | 0.0 | 0.9 | 0.00 | 0.00 | 0.00 | 88 | 1013.4 |
| 20260831224101 | 59 | 132 | 0.0 | 2.6 | 0.00 | 0.00 | 0.00 | 88 | 1013.5 |
| 20260831223601 | 60 | 194 | 0.0 | 2.6 | 0.00 | 0.00 | 0.00 | 88 | 1013.5 |
| 20260831223101 | 60 | 219 | 0.0 | 1.7 | 0.00 | 0.00 | 0.00 | 88 | 1013.5 |
| 20260831222600 | 60 | 218 | 0.0 | 0.0 | 0.00 | 0.00 | 0.00 | 88 | 1013.4 |
| 20260831222102 | 60 | 207 | 0.0 | 0.0 | 0.00 | 0.00 | 0.00 | 88 | 1013.4 |
| 20260831221608 | 60 | 215 | 0.0 | 0.9 | 0.00 | 0.00 | 0.00 | 88 | 1013.4 |
| 20260831221059 | 60 | 184 | 0.0 | 2.6 | 0.00 | 0.00 | 0.00 | 88 | 1013.4 |
| 20260831220559 | 60 | 207 | 0.0 | 2.6 | 0.00 | 0.00 | 0.00 | 88 | 1013.5 |
| 20260831220109 | 60 | 209 | 0.9 | 2.6 | 0.00 | 0.00 | 0.00 | 88 | 1013.6 |
| 20260831220006 | 60 | 200 | 0.9 | 2.6 | 0.00 | 0.00 | 0.00 | 88 | 1013.7 |
| 20260831215559 | 60 | 202 | 0.0 | 2.6 | 0.00 | 0.00 | 0.00 | 88 | 1013.7 |
| 20260831215100 | 60 | 202 | 0.9 | 2.6 | 0.00 | 0.00 | 0.00 | 88 | 1013.6 |
| 20260831214610 | 60 | 209 | 0.0 | 1.7 | 0.00 | 0.00 | 0.00 | 88 | 1013.6 |
| 20260831214100 | 60 | 180 | 0.0 | 2.6 | 0.00 | 0.00 | 0.00 | 88 | 1013.6 |
| 20260831213559 | 60 | 200 | 0.0 | 2.6 | 0.00 | 0.00 | 0.00 | 88 | 1013.6 |
| 20260831213102 | 60 | 176 | 0.0 | 1.7 | 0.00 | 0.00 | 0.00 | 88 | 1013.6 |
| 20260831212600 | 60 | 207 | 0.0 | 0.9 | 0.00 | 0.00 | 0.00 | 88 | 1013.6 |
| 20260831212103 | 60 | 186 | 0.0 | 1.7 | 0.00 | 0.00 | 0.00 | 88 | 1013.7 |
| 20260831211600 | 60 | 177 | 0.0 | 1.7 | 0.00 | 0.00 | 0.00 | 88 | 1013.7 |
| 20260831211100 | 59 | 207 | 0.0 | 1.7 | 0.00 | 0.00 | 0.00 | 88 | 1013.7 |
| 20260831210558 | 59 | 197 | 0.0 | 0.0 | 0.00 | 0.00 | 0.00 | 88 | 1013.7 |
| 20260831210100 | 59 | 197 | 0.0 | 0.9 | 0.00 | 0.00 | 0.00 | 88 | 1013.7 |
| 20260831210001 | 59 | 197 | 0.0 | 0.9 | 0.00 | 0.00 | 0.00 | 88 | 1013.7 |
| 20260831205602 | 60 | 174 | 0.0 | 0.9 | 0.00 | 0.00 | 0.00 | 88 | 1013.7 |
| 20260831205059 | 60 | 190 | 0.0 | 0.9 | 0.00 | 0.00 | 0.00 | 88 | 1013.7 |
| 20260831205001 | 59 | 176 | 0.0 | 0.9 | 0.00 | 0.00 | 0.00 | 88 | 1013.7 |
| 20260831204600 | 59 | 180 | 0.0 | 0.0 | 0.00 | 0.00 | 0.00 | 88 | 1013.7 |
| 20260831204102 | 59 | 190 | 0.0 | 0.9 | 0.00 | 0.00 | 0.00 | 88 | 1013.7 |
| 20260831203603 | 59 | 190 | 0.0 | 0.9 | 0.00 | 0.00 | 0.00 | 88 | 1013.8 |
| 20260831203106 | 60 | 206 | 0.0 | 0.0 | 0.00 | 0.00 | 0.00 | 88 | 1013.7 |
| 20260831202559 | 60 | 209 | 0.0 | 0.0 | 0.00 | 0.00 | 0.00 | 88 | 1013.8 |
| 20260831202059 | 60 | 154 | 0.0 | 0.0 | 0.00 | 0.00 | 0.00 | 88 | 1013.8 |
| 20260831201600 | 60 | 80 | 0.0 | 0.0 | 0.00 | 0.00 | 0.00 | 88 | 1013.9 |
| 20260831201103 | 60 | 186 | 0.0 | 0.0 | 0.00 | 0.00 | 0.00 | 88 | 1013.9 |
| 20260831200600 | 60 | 209 | 0.0 | 0.0 | 0.00 | 0.00 | 0.00 | 88 | 1013.9 |
| 20260831200109 | 60 | 209 | 0.0 | 0.9 | 0.00 | 0.00 | 0.00 | 88 | 1013.9 |
| 20260831195601 | 60 | 209 | 0.0 | 0.9 | 0.00 | 0.00 | 0.00 | 88 | 1013.9 |
| 20260831195059 | 60 | 161 | 0.0 | 0.0 | 0.00 | 0.00 | 0.00 | 88 | 1013.9 |
| 20260831194613 | 60 | 181 | 0.0 | 0.9 | 0.00 | 0.00 | 0.00 | 88 | 1013.9 |
| 20260831194058 | 60 | 205 | 0.0 | 0.9 | 0.00 | 0.00 | 0.00 | 88 | 1013.9 |
| 20260831193558 | 60 | 175 | 0.0 | 0.0 | 0.00 | 0.00 | 0.00 | 88 | 1013.9 |
| 20260831193100 | 60 | 209 | 0.0 | 0.0 | 0.00 | 0.00 | 0.00 | 88 | 1013.8 |
| 20260831192558 | 60 | 209 | 0.0 | 0.9 | 0.00 | 0.00 | 0.00 | 88 | 1013.7 |
| 20260831192058 | 60 | 225 | 0.0 | 0.9 | 0.00 | 0.00 | 0.00 | 88 | 1013.7 |
| 20260831191558 | 60 | 195 | 0.0 | 0.9 | 0.00 | 0.00 | 0.00 | 88 | 1013.6 |
| 20260831191100 | 60 | 216 | 0.0 | 0.9 | 0.00 | 0.00 | 0.00 | 88 | 1013.6 |
| 20260831190600 | 61 | 193 | 0.0 | 0.9 | 0.00 | 0.00 | 0.00 | 87 | 1013.6 |
| 20260831190109 | 61 | 207 | 0.0 | 0.9 | 0.00 | 0.00 | 0.00 | 87 | 1013.7 |
| 20260831185558 | 61 | 204 | 0.0 | 0.0 | 0.00 | 0.00 | 0.00 | 87 | 1013.7 |
| 20260831185057 | 61 | 159 | 0.0 | 0.0 | 0.00 | 0.00 | 0.00 | 87 | 1013.7 |
| 20260831184558 | 62 | 22 | 0.0 | 0.0 | 0.00 | 0.00 | 0.00 | 86 | 1013.9 |
| 20260831184058 | 62 | 22 | 0.0 | 0.0 | 0.00 | 0.00 | 0.00 | 86 | 1013.8 |
| 20260831183558 | 62 | 290 | 0.0 | 0.0 | 0.00 | 0.00 | 0.00 | 86 | 1013.9 |
| 20260831183103 | 62 | 290 | 0.0 | 0.0 | 0.00 | 0.00 | 0.00 | 86 | 1013.8 |
| 20260831182559 | 63 | 223 | 0.0 | 0.9 | 0.00 | 0.00 | 0.00 | 85 | 1013.8 |
| 20260831182058 | 63 | 238 | 0.0 | 0.9 | 0.00 | 0.00 | 0.00 | 85 | 1013.8 |
| 20260831181603 | 63 | 192 | 0.0 | 0.9 | 0.00 | 0.00 | 0.00 | 84 | 1013.6 |
| 20260831181058 | 64 | 213 | 0.0 | 0.0 | 0.00 | 0.00 | 0.00 | 84 | 1013.5 |
| 20260831181001 | 64 | 192 | 0.0 | 0.0 | 0.00 | 0.00 | 0.00 | 84 | 1013.5 |
| 20260831180558 | 64 | 280 | 0.0 | 0.0 | 0.00 | 0.00 | 0.00 | 83 | 1013.5 |
| 20260831180101 | 65 | 240 | 0.0 | 0.9 | 0.00 | 0.00 | 0.00 | 82 | 1013.4 |
| 20260831175559 | 65 | 219 | 0.0 | 1.7 | 0.00 | 0.00 | 0.00 | 81 | 1013.4 |
| 20260831175059 | 66 | 193 | 0.0 | 2.6 | 0.00 | 0.00 | 0.00 | 80 | 1013.3 |
| 20260831174559 | 67 | 212 | 0.0 | 2.6 | 0.00 | 0.00 | 0.00 | 78 | 1013.3 |
| 20260831174100 | 67 | 244 | 0.9 | 2.6 | 0.00 | 0.00 | 0.00 | 77 | 1013.3 |
| 20260831173558 | 68 | 202 | 0.0 | 5.2 | 0.00 | 0.00 | 0.00 | 77 | 1013.2 |
| 20260831173100 | 68 | 225 | 0.9 | 5.2 | 0.00 | 0.00 | 0.00 | 75 | 1013.2 |
| 20260831172602 | 68 | 191 | 0.9 | 3.5 | 0.00 | 0.00 | 0.00 | 75 | 1013.2 |
| 20260831172059 | 69 | 216 | 1.7 | 4.3 | 0.00 | 0.00 | 0.00 | 74 | 1013.2 |
| 20260831171558 | 69 | 196 | 2.6 | 5.2 | 0.00 | 0.00 | 0.00 | 74 | 1013.2 |
| 20260831171059 | 69 | 209 | 2.6 | 5.2 | 0.00 | 0.00 | 0.00 | 74 | 1013.1 |
| 20260831170559 | 69 | 223 | 2.6 | 5.2 | 0.00 | 0.00 | 0.00 | 74 | 1013.1 |
| 20260831170058 | 70 | 212 | 1.7 | 3.5 | 0.00 | 0.00 | 0.00 | 73 | 1013.0 |
| 20260831165600 | 70 | 234 | 0.9 | 6.1 | 0.00 | 0.00 | 0.00 | 71 | 1013.0 |
| 20260831165058 | 71 | 205 | 1.7 | 7.0 | 0.00 | 0.00 | 0.00 | 69 | 1012.9 |
| 20260831164559 | 72 | 215 | 2.6 | 6.1 | 0.00 | 0.00 | 0.00 | 69 | 1012.9 |
| 20260831164059 | 72 | 169 | 1.7 | 7.8 | 0.00 | 0.00 | 0.00 | 68 | 1012.8 |
| 20260831163558 | 72 | 155 | 3.5 | 7.8 | 0.00 | 0.00 | 0.00 | 67 | 1012.8 |
| 20260831163058 | 72 | 191 | 2.6 | 6.1 | 0.00 | 0.00 | 0.00 | 69 | 1012.8 |
| 20260831162559 | 72 | 132 | 0.9 | 6.1 | 0.00 | 0.00 | 0.00 | 70 | 1012.9 |
| 20260831162102 | 72 | 165 | 0.9 | 4.3 | 0.00 | 0.00 | 0.00 | 72 | 1012.9 |
| 20260831161559 | 72 | 191 | 0.9 | 3.5 | 0.00 | 0.00 | 0.00 | 72 | 1012.9 |
| 20260831161058 | 72 | 136 | 0.9 | 3.5 | 0.00 | 0.00 | 0.00 | 72 | 1013.0 |
| 20260831160601 | 72 | 212 | 0.9 | 4.3 | 0.00 | 0.00 | 0.00 | 72 | 1013.1 |
| 20260831160107 | 72 | 225 | 2.6 | 4.3 | 0.00 | 0.00 | 0.00 | 71 | 1013.1 |
| 20260831155600 | 72 | 207 | 0.9 | 4.3 | 0.00 | 0.00 | 0.00 | 72 | 1013.1 |
| 20260831155102 | 72 | 227 | 1.7 | 4.3 | 0.00 | 0.00 | 0.00 | 72 | 1013.2 |
| 20260831154559 | 72 | 221 | 1.7 | 6.1 | 0.00 | 0.00 | 0.00 | 71 | 1013.2 |
| 20260831154101 | 72 | 235 | 1.7 | 6.1 | 0.00 | 0.00 | 0.00 | 72 | 1013.2 |
| 20260831153600 | 73 | 233 | 1.7 | 7.8 | 0.00 | 0.00 | 0.00 | 71 | 1013.2 |
| 20260831153059 | 73 | 249 | 2.6 | 7.8 | 0.00 | 0.00 | 0.00 | 70 | 1013.2 |
| 20260831152559 | 73 | 213 | 3.5 | 7.0 | 0.00 | 0.00 | 0.00 | 70 | 1013.2 |
| 20260831152059 | 73 | 279 | 1.7 | 5.2 | 0.00 | 0.00 | 0.00 | 71 | 1013.2 |
| 20260831151600 | 73 | 215 | 0.9 | 6.1 | 0.00 | 0.00 | 0.00 | 71 | 1013.3 |
| 20260831151059 | 73 | 248 | 2.6 | 6.1 | 0.00 | 0.00 | 0.00 | 70 | 1013.2 |
| 20260831150600 | 74 | 226 | 2.6 | 6.1 | 0.00 | 0.00 | 0.00 | 70 | 1013.2 |
| 20260831150110 | 74 | 221 | 0.9 | 4.3 | 0.00 | 0.00 | 0.00 | 70 | 1013.1 |
| 20260831145603 | 74 | 221 | 2.6 | 4.3 | 0.00 | 0.00 | 0.00 | 69 | 1013.1 |
| 20260831145101 | 74 | 231 | 0.9 | 4.3 | 0.00 | 0.00 | 0.00 | 69 | 1013.1 |
| 20260831145004 | 74 | 225 | 0.9 | 4.3 | 0.00 | 0.00 | 0.00 | 68 | 1013.1 |
| 20260831144604 | 74 | 246 | 0.9 | 5.2 | 0.00 | 0.00 | 0.00 | 68 | 1013.1 |
| 20260831144058 | 74 | 179 | 2.6 | 5.2 | 0.00 | 0.00 | 0.00 | 69 | 1013.2 |
| 20260831143559 | 74 | 233 | 0.9 | 5.2 | 0.00 | 0.00 | 0.00 | 70 | 1013.2 |
| 20260831143102 | 74 | 276 | 3.5 | 5.2 | 0.00 | 0.00 | 0.00 | 68 | 1013.1 |
| 20260831142558 | 75 | 173 | 2.6 | 4.3 | 0.00 | 0.00 | 0.00 | 70 | 1013.1 |
| 20260831142058 | 74 | 229 | 0.9 | 4.3 | 0.00 | 0.00 | 0.00 | 73 | 1013.2 |
| 20260831141559 | 74 | 211 | 1.7 | 3.5 | 0.00 | 0.00 | 0.00 | 73 | 1013.3 |
| 20260831141104 | 74 | 225 | 0.9 | 3.5 | 0.00 | 0.00 | 0.00 | 73 | 1013.3 |
| 20260831140558 | 74 | 207 | 0.9 | 3.5 | 0.00 | 0.00 | 0.00 | 74 | 1013.3 |
| 20260831140058 | 73 | 227 | 0.9 | 2.6 | 0.00 | 0.00 | 0.00 | 74 | 1013.3 |